This is the latest recevied weather packets stored in our database for station/object WB5LJZ-9. If no packets are shown the sender has not sent any weather packets the latest 10 day(s).
| Time | Temp. | Humidity | Pressure | Rain* | Wind** | Luminosity | Snow |
|---|---|---|---|---|---|---|---|
| 1787699621 | - | - | 984 hPa | 0 mm | 3.13 m/s, 351° | - | - |
| 1787698904 | - | - | 984 hPa | 0 mm | 2.68 m/s, 341° | - | - |
| 1787698187 | - | - | 984 hPa | 0 mm | 3.13 m/s, 310° | - | - |
| 1787697464 | - | - | 984 hPa | 0 mm | 2.24 m/s, 247° | - | - |
| 1787696747 | - | - | 984 hPa | 0 mm | 3.13 m/s, 320° | - | - |
| 1787696030 | - | - | 984 hPa | 0 mm | 4.02 m/s, 316° | - | - |
| 1787695309 | - | - | 984 hPa | 0 mm | 3.13 m/s, 276° | - | - |
| 1787694592 | - | - | 985 hPa | 0 mm | 3.58 m/s, 356° | - | - |
| 1787693870 | - | - | 985 hPa | 0 mm | 3.58 m/s, 312° | - | - |
| 1787693134 | - | - | 985 hPa | 0 mm | 2.68 m/s, 351° | - | - |
| 1787692412 | - | - | 985 hPa | 0 mm | 2.68 m/s, 329° | - | - |
| 1787691695 | - | - | 985 hPa | 0 mm | 3.13 m/s, 296° | - | - |
| 1787690968 | - | - | 985 hPa | 0 mm | 3.13 m/s, 318° | - | - |
| 1787690246 | - | - | 985 hPa | 0 mm | 3.58 m/s, 275° | - | - |
| 1787689529 | - | - | 986 hPa | 0 mm | 2.24 m/s, 344° | - | - |
| 1787688807 | - | - | 986 hPa | 0 mm | 2.68 m/s, 356° | - | - |
| 1787688081 | - | - | 986 hPa | 0 mm | 2.24 m/s, 351° | - | - |
| 1787687358 | - | - | 986 hPa | 0 mm | 3.13 m/s, 318° | - | - |
| 1787686636 | - | - | 986 hPa | 0 mm | 2.68 m/s, 268° | - | - |
| 1787685914 | - | - | 986 hPa | 0 mm | 1.34 m/s, 234° | - | - |
| 1787685197 | - | - | 986 hPa | 0 mm | 3.13 m/s, 274° | - | - |
| 1787684470 | - | - | 987 hPa | 0 mm | 3.58 m/s, 262° | - | - |
| 1787683748 | - | - | 987 hPa | 0 mm | 1.79 m/s, 259° | - | - |
| 1787683021 | - | - | 987 hPa | 0 mm | 1.79 m/s, 290° | - | - |
| 1787682298 | - | - | 987 hPa | 0 mm | 2.24 m/s, 338° | - | - |
* Rain latest hour (hover to see other rain measurements)
** Current wind speed in m/s (hover to see current wind gust speed)